User: anonymous   Login
Location: Caltech
(34.1382°N, 118.1253°W)
Time: 12:17:21
(UTC-08:00)
Language:

Cosmos 1833 - Orbit

View from above orbital plane
View from above orbital plane
View from above satellite
View from above satellite

Ground track
Ground track

The orbit data is extracted from the following two-line orbital elements,

1 17589U 87027A   15063.21573861 -.00000318  00000-0 -14517-3 0  9997
2 17589 070.9159 141.4874 0010769 141.8329 249.4891 14.12841178442232
Epoch (UTC): 04 March 2015 05:10:39
Eccentricity: 0.0010769
inclination: 70.9159°
perigee height: 842 km
apogee height: 857 km
right ascension of ascending node: 141.4874°
argument of perigee: 141.8329°
revolutions per day: 14.12841178
mean anomaly at epoch: 249.4891°
orbit number at epoch: 44223

The dashed part of the orbit path shows where the satellite is in the earth's shadow,  

DLR